Flag for Germany Weather past 2 weeks in Essen, North Rhine-Westphalia, Germany

Now
61 °F

Partly sunny.


Feels Like: 61 °F
Forecast: 53 / 68 °F
Wind: 6 mph from Southwest

Location: Duesseldorf

Current Time: Oct 1, 2014 at 10:58:22 AM

Latest Report: Oct 1, 2014 at 10:20 AM


Visibility: 4 mi

Pressure: 30.33 "Hg

Humidity: 94%

Dew point: 59 °F

Location of EssenLocation

Historic Weather in Essen — Graph

°F

Essen temperature yesterday

Maximum temperature yesterday: 70 °F (at 5:20 PM)
Minimum temperature yesterday: 55 °F (at 11:20 PM)
Average temperature yesterday: 62 °F

Past Weeks' High & Low Weather Summary

 TemperatureHumidityPressure
High77 °F (Sep 17, 2:20 PM)100% (Sep 18, 11:20 PM)30.39 "Hg (Sep 18, 11:20 PM)
Low45 °F (Sep 23, 4:20 AM)45% (Sep 23, 5:20 PM)29.83 "Hg (Sep 18, 4:50 AM)
Average61 °F80%30.08 "Hg
* Reported Sep 16 9:20 AM — Oct 1 9:50 AM, Essen, Weather by CustomWeather, © 2014

Note: Actual official high and low records may vary slightly from our data, if they occured in-between our weather recording intervals... More about our weather records

Advertising

Essen weather history for previous 24 hours

 ConditionsComfort  
Time TempWeatherWind HumidityBarometerVisibility
9:50 AM
Oct 1
61 °FScattered clouds.6 mph88%30.30 "Hg4 mi
9:20 AM59 °FFog.5 mph94%30.30 "Hg3 mi
8:50 AM57 °FFog.7 mph100%30.30 "Hg3 mi
8:20 AM57 °FFog.6 mph94%30.30 "Hg2 mi
7:50 AM57 °FFog.8 mph94%30.30 "Hg2 mi
7:20 AM57 °FFog.7 mph94%30.27 "Hg2 mi
6:50 AM57 °FFog.6 mph94%30.30 "Hg3 mi
6:20 AM57 °FPartly cloudy.2 mph100%30.27 "Hg4 mi
5:50 AM59 °FLight rain. Partly cloudy.6 mph94%30.27 "Hg5 mi
5:20 AM59 °FPartly cloudy.7 mph94%30.30 "Hg5 mi
4:50 AM59 °FPartly cloudy.3 mph94%30.30 "Hg6 mi
4:20 AM59 °FLight rain. Partly cloudy.5 mph94%30.30 "Hg6 mi
3:50 AM59 °FLight rain. Partly cloudy.3 mph94%30.30 "Hg6 mi
3:20 AM59 °FLight rain. Partly cloudy.1 mph94%30.30 "HgN/A
2:50 AM59 °FLight rain. Partly cloudy.6 mph94%30.30 "HgN/A
2:20 AM57 °FPassing clouds.2 mph94%30.30 "HgN/A
1:50 AM54 °FFog.2 mph94%30.30 "HgN/A
1:20 AM54 °FFog.2 mph100%30.30 "HgN/A
12:50 AM54 °FFog.3 mph94%30.27 "HgN/A
12:20 AM55 °FFog.2 mph94%30.27 "HgN/A
11:50 PM
Sep 30
55 °FFog.2 mph94%30.27 "HgN/A
11:20 PM55 °FFog.5 mph88%30.30 "HgN/A
10:50 PM57 °FFog.1 mph94%30.30 "HgN/A
10:20 PM57 °FClear.3 mph94%30.27 "HgN/A
9:50 PM57 °FClear.2 mph88%30.27 "Hg10 mi
9:20 PM57 °FFog.2 mph88%30.27 "HgN/A
8:50 PM59 °FFog.No wind82%30.27 "HgN/A
8:20 PM61 °FClear.1 mph83%30.27 "Hg10 mi
7:50 PM63 °FSunny.3 mph77%30.27 "Hg10 mi
7:20 PM64 °FPassing clouds.5 mph73%30.27 "HgN/A
6:50 PM66 °FPassing clouds.5 mph68%30.27 "HgN/A
6:20 PM66 °FPassing clouds.6 mph68%30.27 "HgN/A
5:50 PM68 °FPassing clouds.6 mph69%30.27 "HgN/A
5:20 PM70 °FPassing clouds.5 mph64%30.27 "HgN/A
4:50 PM68 °FPassing clouds.7 mph64%30.27 "HgN/A
4:20 PM68 °FScattered clouds.6 mph64%30.27 "HgN/A
3:50 PM68 °FPartly sunny.5 mph64%30.27 "HgN/A
3:20 PM68 °FPartly sunny.6 mph69%30.27 "HgN/A
2:50 PM68 °FPartly sunny.7 mph69%30.27 "HgN/A
2:20 PM66 °FBroken clouds.6 mph68%30.27 "HgN/A
1:50 PM66 °FPartly sunny.8 mph73%30.27 "HgN/A
1:20 PM66 °FPartly sunny.9 mph73%30.27 "HgN/A
12:50 PM66 °FPartly sunny.9 mph73%30.27 "HgN/A
12:20 PM66 °FPartly sunny.10 mph68%30.27 "HgN/A
11:50 AM66 °FPartly sunny.10 mph78%30.27 "HgN/A
11:20 AM64 °FPartly sunny.9 mph83%30.27 "HgN/A
10:50 AM66 °FBroken clouds.7 mph83%30.27 "HgN/A
10:20 AM63 °FPartly sunny.8 mph88%30.24 "HgN/A
Weather by CustomWeather, © 2014

See weather overviewHow to use our weather pages